Home > Weather > Honolulu > Past weeks

Flag for USA Past Weather in Honolulu, Hawaii, USA — Yesterday and Last 2 Weeks

Now
75 °F

Broken clouds.


Feels Like: 76 °F
Forecast: 73 / 82 °F
Wind: 7 mph from Northeast

Location: Honolulu International Airport

Current Time: Jun 25, 2016 at 7:55:10 AM

Latest Report: Jun 25, 2016 at 6:53 AM


Visibility: 10 mi

Pressure: 30.02 "Hg

Humidity: 76%

Dew Point: 67 °F

Location of HonoluluLocation

Past Weather in Honolulu — Graph

°F

Honolulu Temperature Yesterday

Maximum temperature yesterday: 85 °F (at 11:53 AM)
Minimum temperature yesterday: 74 °F (at 11:53 PM)
Average temperature yesterday: 80 °F

High & Low Weather Summary for the Past Weeks

 TemperatureHumidityPressure
High87 °F (Jun 21, 1:53 PM)90% (Jun 21, 5:53 AM)30.18 "Hg (Jun 21, 5:53 AM)
Low72 °F (Jun 10, 5:53 AM)45% (Jun 22, 1:53 PM)29.96 "Hg (Jun 18, 4:53 PM)
Average79 °F66%30.05 "Hg
* Reported Jun 10 5:53 AM — Jun 25 5:53 AM, Honolulu, Weather by CustomWeather, © 2016

Note: Actual official high and low records may vary slightly from our data, if they occured in-between our weather recording intervals... More about our weather records

Advertising

Honolulu Weather History for the Previous 24 Hours

Scroll right to see more
 ConditionsComfort  
Time TempWeatherWind HumidityBarometerVisibility
5:53 AM
Sat, Jun 25
74 °FBroken clouds.16 mph79%30.02 "Hg10 mi
4:53 AM73 °FMostly cloudy.10 mph81%30.01 "Hg10 mi
3:53 AM74 °FOvercast.8 mph85%30.01 "Hg10 mi
2:53 AM74 °FPartly cloudy.12 mph82%30.01 "Hg10 mi
1:53 AM76 °FPartly cloudy.8 mph77%30.02 "Hg10 mi
12:53 AM76 °FPartly cloudy.14 mph77%30.03 "Hg10 mi
11:53 PM
Fri, Jun 24
74 °FRain. Mostly cloudy.7 mph88%30.05 "Hg10 mi
10:53 PM76 °FPassing clouds.12 mph80%30.05 "Hg10 mi
9:53 PM75 °FLight rain. Passing clouds.6 mph88%30.06 "Hg10 mi
8:53 PM78 °FPassing clouds.13 mph69%30.04 "Hg10 mi
7:53 PM78 °FPartly cloudy.9 mph69%30.02 "Hg10 mi
6:53 PM79 °FBroken clouds.12 mph67%30.01 "Hg10 mi
5:53 PM82 °FBroken clouds.16 mph60%29.99 "Hg10 mi
4:53 PM84 °FBroken clouds.16 mph57%29.99 "Hg10 mi
3:53 PM84 °FPartly sunny.14 mph57%30.00 "Hg10 mi
2:53 PM84 °FScattered clouds.14 mph57%30.00 "Hg10 mi
1:53 PM84 °FScattered clouds.14 mph57%30.02 "Hg10 mi
12:53 PM83 °FScattered clouds.13 mph59%30.02 "Hg10 mi
11:53 AM85 °FScattered clouds.15 mph53%30.04 "Hg10 mi
10:53 AM84 °FScattered clouds.15 mph53%30.04 "Hg10 mi
9:53 AM82 °FScattered clouds.14 mph58%30.06 "Hg10 mi
8:53 AM81 °FScattered clouds.10 mph60%30.06 "Hg10 mi
7:53 AM79 °FScattered clouds.13 mph62%30.06 "Hg10 mi
Weather by CustomWeather, © 2016

See weather overviewHow to use our weather pages